Regional Weather Roundup
Issued by NWS

Home | Current Version | Previous Version | Graphics & Text | Print | Product List | Glossary On
Versions: 1 2 3 4 5 6 7 8 9 10 11 12 13 14 15 16 17 18 19 20 21 22 23 24 25 26 27
000
ASUS45 KBOU 231907
RWRCO

WEATHER ROUNDUP FOR COLORADO
NATIONAL WEATHER SERVICE DENVER/BOULDER CO
100 PM MDT SAT JUL 23 2016

NOTE: "FAIR" INDICATES FEW OR NO CLOUDS BELOW 12000 FEET WITH NO
SIGNIFICANT WEATHER AND/OR OBSTRUCTIONS TO VISIBILITY.

COZ001>005-013-030-031-232000-
...NORTHWEST COLORADO...

CITY           SKY/WX    TMP DP  RH WIND       PRES   REMARKS
CRAIG          FAIR      89  42  19 W12       30.21F
HAYDEN         FAIR      84  43  23 NW13      30.24F
MEEKER         FAIR      87  49  26 VRB5      30.22F
MOUNT WERNER   NOT AVBL
STEAMBOAT SPGS FAIR      81  45  28 SW10      30.27F
WALDEN         FAIR      79  37  22 SW20      30.37S
$$

COZ006>008-011-232000-
...WEST CENTRAL VALLEYS...

CITY           SKY/WX    TMP DP  RH WIND       PRES   REMARKS
GRAND JUNCTION FAIR      89  48  24 NW6       30.12F
MONTROSE       FAIR      88  44  21 VRB7      30.21F
EAGLE          SUNNY     86  45  23 NW7       30.26F
RIFLE          FAIR      88  45  22 N3        30.17F
DELTA          FAIR      91  46  20 SE5       30.16F
NUCLA          FAIR      88  43  20 N8        30.26F
$$

COZ017>023-064>068-232000-
...SOUTHWEST COLORADO...

CITY           SKY/WX    TMP DP  RH WIND       PRES   REMARKS
DURANGO        FAIR      89  44  20 VRB7G16   30.24F
CORTEZ         FAIR      91  45  20 SW8       30.21F
PAGOSA SPRINGS FAIR      86  31  13 S3        30.33F
TELLURIDE      FAIR      76  38  25 W7        30.50F
WOLF CREEK PAS PTSUNNY   61  34  36 NE10G20   30.73F
$$

COZ009-010-012-014-032>034-037-058>063-232000-
...CENTRAL COLORADO...

CITY           SKY/WX    TMP DP  RH WIND       PRES   REMARKS
ASPEN          FAIR      82  44  26 E8        30.35F
BUENA VISTA    FAIR      84  28  13 W7        30.34S
COPPER MTN     FAIR      64  28  25 NW5G23    30.72S
BERTHOUD PASS  FAIR      55  41  58 N17G28    30.74F
COTTONWOOD PAS PTSUNNY   77  32  19 E3        30.52F
GUNNISON       FAIR      77  48  36 SW6       30.39F
KREMMLING      FAIR      82  36  18 S5        30.32F
LEADVILLE      FAIR      72  29  20 NW12G22   30.52S
MONARCH PASS   FAIR      63  41  45 MISG      30.81S
SALIDA         FAIR      84  31  14 S6        30.37F
SUNLIGHT       FAIR      68  45  42 CALM      30.64F
WILKERSON PASS PTSUNNY   68  34  28 SE5       30.67S
$$

COZ069>075-232000-
...SAN LUIS VALLEY/SANGRE DE CRISTO MOUNTAINS...

CITY           SKY/WX    TMP DP  RH WIND       PRES   REMARKS
ALAMOSA        FAIR      84  43  23 MISG      30.33F
LA VETA PASS   FAIR      75  37  25 S5        30.56S
SAGUACHE       FAIR      86  36  16 NW12G22   30.34F
$$

COZ035-036-038>040-232000-
...NORTHERN COLORADO FRONT RANGE...

CITY           SKY/WX    TMP DP  RH WIND       PRES   REMARKS
DENVER INTL AP FAIR      95  38  13 SE5       30.10F
DMNS CITY PARK   N/A     93  36  13 NE2G9     30.08F
AURORA         MOSUNNY   93  39  15 SE9       30.13F
FRONT RANGE AP MOSUNNY   95  36  12 N7G20     30.12S
ERIE MUNI ARPT FAIR      95  33  11 S5        30.06F
BOULDER MUN AP FAIR      93  41  16 S5        30.07F
CENTENNIAL     FAIR      91  35  13 SE8       30.14F
BROOMFIELD     MOSUNNY   95  37  13 E10       30.12F
LONGMONT       FAIR      97  40  14 S12       30.06F
$$

COZ041-046-047-076>085-087-088-232000-
...PIKES PEAK/PALMER DIVIDE AND SOUTHERN FOOTHILLS...

CITY           SKY/WX    TMP DP  RH WIND       PRES   REMARKS
COLO. SPRINGS  FAIR      91  39  16 CALM      30.19F
A. F. ACADEMY  CLOUDY    86  36  17 N6        30.20F
SCHRIEVER AFB  NOT AVBL
ELLICOTT       FAIR     N/A N/A N/A VRB7      30.17F
FALCON         FAIR      89  40  18 SE6       30.26F
FORT CARSON    FAIR      92  40  16 W3        30.15F
LIMON          FAIR      95  39  14 NE8G21    30.11F
MONUMENT HILL  FAIR      82  43  24 E5        30.28F
TRINIDAD       NOT AVBL
$$

COZ042>045-048>051-090-091-232000-
...NORTHEAST COLORADO...

CITY           SKY/WX    TMP DP  RH WIND       PRES   REMARKS
GREELEY ARPT   FAIR      99  46  16 SE5       30.04F
AKRON          FAIR      92  51  24 N13       30.06S
BURLINGTON     FAIR      96  51  21 NE17G24   30.00F
WRAY           FAIR      97  54  23 N9G16     29.96F
STERLING       FAIR      95  63  34 S9        29.98S
HOLYOKE        FAIR      95  57  28 W9        29.97S
FORT MORGAN    FAIR      96  51  21 E7        30.04S
$$

COZ086-089-092>099-232000-
...SOUTHEAST COLORADO...

CITY           SKY/WX    TMP DP  RH WIND       PRES   REMARKS
PUEBLO         FAIR      99  46  16 W9G18     30.04F
LA JUNTA       FAIR     100  50  18 NE9       29.99F
LAMAR          FAIR      99  57  24 VRB3      29.93F
SPRINGFIELD      N/A    100  48  17 SW6       29.99F
$$




USA.gov is the U.S. government's official web portal to all federal, state and local government web resources and services.